2007 HL4
ephemeris date magn radius delta ra dec elong phase
Today18 Oct 202525.61.148 AU0.662 AU08h11m+25°33'85.0°59.9°
2007 HL4 - 2025-10-18
astro.vanbuitenen.nl


 
-1 year
-1 month
-1 day
Now
+1 day
+1 month
+1 year

The interactive orbit chart above shows the body's path through the solar system and its position at the given date. Green and blue lines are shown perpendicular to the ecliptic plane: Green if the path is above the ecliptic plane, blue if it is below. (Left-click and drag to rotate the view; Right-click and drag to move the view; Use scroll wheel to zoom in our out.)

The orbital elements of 2007 HL4 are:

            e (Eccentricity)                : 0.0906766
            a (Semimajor axis)              : 1.1201226
            i (Inclination)                 : 6.53789
            Ω (Longitude of ascending node) : 30.96621
            ω (Argument of perihelion)      : 139.37520
            M (Mean anomaly)                : 121.24741
            Epoch                           : 2025 May 05

            L (Longitude of perihelion)     : -9.47395
            B (Latitude of perihelion)      : 4.25151
            P (Orbital period in years)     : 1.19            
        

The light curve chart below shows the estimated development of the minor planet's magnitude.


The all-sky chart below shows the path of the minor planet over the same period as the light curve. The current position is marked yellow.





The following chart shows the path of the minor planet in the next few days. The field of view is optimized for (~10x50) binoculars and finderscopes.




Ephemerides:
Date       Time       RA (2000)    DEC (2000)    delta   radius  elong  phase   PA    magn
2025-10-18 00:00 UT   08 11 43.5   +25 33 48     0.662    1.148   85.0   59.9   283   25.6 
2025-10-18 20:56 UT   08 15 15.0   +25 31 56     0.659    1.146   85.1   60.0   283   25.6 
2025-10-19 00:00 UT   08 15 46.0   +25 31 38     0.658    1.146   85.1   60.0   283   25.6 
2025-10-20 00:00 UT   08 19 49.0   +25 29 08     0.654    1.145   85.2   60.1   284   25.6 
2025-10-21 00:00 UT   08 23 52.6   +25 26 19     0.650    1.143   85.3   60.2   284   25.6 
2025-10-22 00:00 UT   08 27 56.7   +25 23 11     0.646    1.142   85.4   60.3   284   25.6 
2025-10-23 00:00 UT   08 32 01.3   +25 19 43     0.642    1.141   85.5   60.4   285   25.6 
2025-10-24 00:00 UT   08 36 06.4   +25 15 55     0.638    1.139   85.5   60.5   285   25.6 
2025-10-25 00:00 UT   08 40 12.1   +25 11 48     0.634    1.138   85.6   60.6   285   25.6 
2025-10-26 00:00 UT   08 44 18.2   +25 07 20     0.630    1.136   85.7   60.7   286   25.5 
2025-10-27 00:00 UT   08 48 24.7   +25 02 33     0.626    1.135   85.8   60.9   286   25.5 


    Terminology:
            
    delta:  distance between minor planet and earth in AU
    radius: distance between minor planet and sun in AU
    magn:   magnitude (brightness) estimate    
    ra:     right ascension in hours (24h = 360deg)
    dec:    declination in degrees
    elong:  elongation in degrees (angle sun-earth-minor planet)    
    phase:  phase angle in degrees (angle sun-minor planet-earth)        
    AU:     Astronomical Unit (mean distance between earth and sun: 149597870.7 km
    

Orbital elements provided by the MPC (Minor Planet Center).
Calculations by a modified version of AAPlus, a C# implementation of the AA+ project by PJ Naughter from the algorithms presented in the book "Astronomical Algorithms" by Jean Meeus.
NGC2000 dso catalog and star labels from VizieR as provided by the Strasbourg astronomical Data Center.
Tycho2 catalog from the ESO archive.